GW2624 Weather Reports


time (UTC)temp
F
wind
direction
speed
knots
gust
knots
rain 1hr
in
rain 24hr
in
rain mn
in
humidity
%
barometer
mb
20260503195404 68 226 0.9 10.4 0.00 0.00 0.00 24 1011.9
20260503194905 68 31 1.7 7.8 0.00 0.00 0.00 24 1011.8
20260503193904 68 246 1.7 6.1 0.00 0.00 0.00 23 1012.3
20260503193404 69 268 1.7 4.3 0.00 0.00 0.00 23 1012.3
20260503190904 67 203 1.7 4.3 0.00 0.00 0.00 25 1012.8
20260503183906 66 5 1.7 6.1 0.00 0.00 0.00 25 1013.5
20260503183405 66 285 1.7 6.1 0.00 0.00 0.00 23 1013.8
20260503182905 65 208 2.6 6.1 0.00 0.00 0.00 23 1013.8
20260503182404 65 218 1.7 6.1 0.00 0.00 0.00 26 1013.9
20260503181904 65 258 2.6 2.6 0.00 0.00 0.00 26 1014.1
20260503180404 64 220 1.7 2.6 0.00 0.00 0.00 27 1014.3
20260503175404 63 21 1.7 5.2 0.00 0.00 0.00 30 1014.6
20260503174904 63 168 0.9 6.1 0.00 0.00 0.00 30 1014.7
20260503174404 63 264 1.7 6.1 0.00 0.00 0.00 31 1014.8
20260503171904 62 222 1.7 6.1 0.00 0.00 0.00 35 1015.1
20260503171405 61 309 0.9 6.1 0.00 0.00 0.00 38 1015.1
20260503170904 61 225 2.6 6.1 0.00 0.00 0.00 35 1015.1
20260503090404 40 147 0.0 0.9 0.00 0.00 0.00 77 1017.6
20260503081404 42 146 0.9 2.6 0.00 0.00 0.00 75 1017.6
20260503080904 42 146 0.0 1.7 0.00 0.00 0.00 74 1017.6
20260503072904 44 146 0.9 2.6 0.00 0.00 0.00 70 1017.9
20260503072404 44 146 1.7 2.6 0.00 0.00 0.00 70 1017.9
20260503071903 45 147 0.9 2.6 0.00 0.00 0.00 70 1017.9
20260503070403 45 146 0.9 2.6 0.00 0.00 0.00 70 1017.9
20260503053405 48 141 2.6 6.1 0.00 0.00 0.00 64 1018.0
20260503052404 48 148 2.6 7.0 0.00 0.00 0.00 63 1018.0
20260503051904 48 141 1.7 4.3 0.00 0.00 0.00 63 1018.0
20260503050904 48 135 1.7 6.1 0.00 0.00 0.00 63 1017.9
20260503045904 49 135 1.7 5.2 0.00 0.00 0.00 61 1018.0
20260503044404 49 143 1.7 4.3 0.00 0.00 0.00 58 1017.8
20260503043904 49 140 2.6 4.3 0.00 0.00 0.00 57 1017.8
20260503043404 50 133 0.9 4.3 0.00 0.00 0.00 55 1017.8
20260503041904 51 136 1.7 7.8 0.00 0.00 0.00 54 1017.8
20260503040404 52 143 4.3 10.4 0.00 0.00 0.00 54 1017.6
20260503035404 52 144 7.8 11.3 0.00 0.00 0.00 52 1017.5
20260503034404 53 161 5.2 10.4 0.00 0.00 0.00 50 1017.5
20260503033903 53 148 2.6 8.7 0.00 0.00 0.00 48 1017.4
20260503032904 53 134 5.2 10.4 0.00 0.00 0.00 45 1017.2
20260503032404 52 143 4.3 8.7 0.00 0.00 0.00 44 1017.1
20260503031404 51 139 1.7 5.2 0.00 0.00 0.00 44 1016.9
20260503025404 52 150 0.0 0.9 0.00 0.00 0.00 41 1016.7
20260503024904 53 150 0.0 0.9 0.00 0.00 0.00 39 1016.6
20260503023904 54 150 0.0 0.9 0.00 0.00 0.00 40 1016.5
20260503022903 55 150 0.9 2.6 0.00 0.00 0.00 37 1016.5
20260503021403 56 0 0.0 7.0 0.00 0.00 0.00 34 1016.7
20260503020403 57 155 0.9 4.3 0.00 0.00 0.00 32 1016.5
20260503015403 58 199 0.0 1.7 0.00 0.00 0.00 30 1016.4
20260503011404 61 0 1.7 4.3 0.00 0.00 0.00 26 1016.1
20260503010904 61 0 1.7 5.2 0.00 0.00 0.00 25 1016.2
20260503005904 62 203 1.7 7.8 0.00 0.00 0.00 25 1016.1
20260503005404 62 242 0.9 7.8 0.00 0.00 0.00 24 1016.1
20260503004904 63 195 2.6 7.8 0.00 0.00 0.00 24 1016.1
20260503003403 63 142 2.6 7.0 0.00 0.00 0.00 24 1016.3
20260503002403 64 242 2.6 7.0 0.00 0.00 0.00 23 1016.3
20260503001404 65 271 0.9 2.6 0.00 0.00 0.00 27 1016.4
20260503000404 65 295 1.7 6.1 0.00 0.00 0.00 26 1016.4
20260502235404 64 257 0.9 2.6 0.00 0.00 0.00 26 1016.6
20260502234404 63 2 1.7 5.2 0.00 0.00 0.00 28 1016.7
20260502233404 63 204 1.7 4.3 0.00 0.00 0.00 25 1016.7
20260502230903 64 294 1.7 2.6 0.00 0.00 0.00 25 1017.1
20260502230404 64 317 0.0 2.6 0.00 0.00 0.00 29 1017.0
20260502225903 63 30 0.9 2.6 0.00 0.00 0.00 28 1017.1
20260502225404 63 52 1.7 2.6 0.00 0.00 0.00 28 1017.1
20260502224904 62 21 1.7 5.2 0.00 0.00 0.00 29 1017.1
20260502223404 61 128 0.9 4.3 0.00 0.00 0.00 30 1017.5
20260502222404 61 72 1.7 4.3 0.00 0.00 0.00 30 1017.7
20260502221904 61 148 2.6 4.3 0.00 0.00 0.00 29 1017.8
20260502215904 60 302 0.9 2.6 0.00 0.00 0.00 33 1018.2
20260502214404 60 28 0.0 2.6 0.00 0.00 0.00 33 1018.4
20260502213904 60 27 1.7 4.3 0.00 0.00 0.00 31 1018.6
20260502213404 60 303 1.7 4.3 0.00 0.00 0.00 32 1018.7
20260502212404 60 59 1.7 2.6 0.00 0.00 0.00 32 1018.9
20260502211903 60 35 0.9 2.6 0.00 0.00 0.00 32 1018.9
20260502211404 60 58 0.9 2.6 0.00 0.00 0.00 34 1019.0
20260502210405 60 301 0.9 2.6 0.00 0.00 0.00 33 1019.1
20260502205903 60 24 0.9 2.6 0.00 0.00 0.00 32 1019.2
20260502204903 61 273 0.9 4.3 0.00 0.00 0.00 31 1019.2
20260502204404 62 229 1.7 4.3 0.00 0.00 0.00 31 1019.3
20260502203904 63 44 1.7 4.3 0.00 0.00 0.00 30 1019.3
20260502202904 63 309 0.9 5.2 0.00 0.00 0.00 33 1019.4
20260502201904 62 13 0.9 5.2 0.00 0.00 0.00 35 1019.6
20260502201404 62 53 1.7 5.2 0.00 0.00 0.00 33 1019.6
20260502200904 61 286 1.7 6.1 0.00 0.00 0.00 33 1019.7